PU5BHV Weather Reports


time (UTC)temp
F
wind
direction
speed
knots
gust
knots
rain 1hr
in
rain 24hr
in
rain mn
in
humidity
%
barometer
mb
20260508034647 72 42 0.0 0.0 0.00 0.00 0.00 99 1008.4
20260508034144 72 42 0.0 0.0 0.00 0.00 0.00 99 1008.6
20260508033642 72 42 0.0 0.0 0.00 0.00 0.00 99 1008.4
20260508033141 72 42 0.0 0.0 0.00 0.00 0.00 99 1008.6
20260508032636 72 42 0.0 0.0 0.00 0.00 0.00 98 1008.6
20260508032134 72 42 0.0 0.0 0.00 0.00 0.00 98 1008.8
20260508031631 72 42 0.0 0.0 0.00 0.00 0.00 98 1008.8
20260508031127 72 42 0.0 0.0 0.00 0.00 0.00 98 1009.0
20260508030623 72 42 0.0 0.0 0.00 0.00 0.00 98 1008.7
20260508030121 72 42 0.0 0.0 0.00 0.00 0.00 98 1008.9
20260508025617 72 42 0.0 0.0 0.00 0.00 0.00 98 1009.0
20260508025114 72 42 0.0 0.0 0.00 0.00 0.00 98 1009.1
20260508024610 72 42 0.0 0.0 0.00 0.00 0.00 98 1009.0
20260508024108 72 42 0.0 0.0 0.00 0.00 0.00 98 1009.0
20260508023604 72 42 0.0 0.0 0.00 0.00 0.00 98 1009.3
20260508023101 72 42 0.0 0.0 0.00 0.00 0.00 98 1009.2
20260508022557 72 42 0.0 0.0 0.00 0.00 0.00 98 1009.3
20260508022054 72 42 0.0 0.0 0.00 0.00 0.00 98 1009.4
20260508021550 72 42 0.0 0.0 0.00 0.00 0.00 97 1009.0
20260508021046 72 42 0.0 0.0 0.00 0.00 0.00 97 1009.3
20260508020544 72 42 0.0 0.0 0.00 0.00 0.00 97 1009.2
20260508020041 72 39 0.0 0.0 0.00 0.00 0.00 97 1009.4
20260508015539 73 39 0.0 0.0 0.00 0.00 0.00 97 1009.4
20260508015036 73 40 0.0 0.0 0.00 0.00 0.00 97 1009.2
20260508014532 73 14 0.0 0.0 0.00 0.00 0.00 97 1009.2
20260508014028 73 14 0.0 0.0 0.00 0.00 0.00 96 1009.4
20260508013524 73 14 0.0 0.0 0.00 0.00 0.00 96 1009.1
20260508013022 73 14 0.0 0.0 0.00 0.00 0.00 95 1009.2
20260508012519 73 14 0.0 0.0 0.00 0.00 0.00 95 1009.3
20260508012016 73 14 0.0 0.0 0.00 0.00 0.00 95 1009.0
20260508011514 74 14 0.0 0.0 0.00 0.00 0.00 94 1009.1
20260508011011 74 14 0.0 0.0 0.00 0.00 0.00 94 1009.1
20260508010508 74 37 0.0 0.0 0.00 0.00 0.00 94 1008.8
20260508010005 74 146 0.0 0.0 0.00 0.00 0.00 93 1008.8
20260508005502 75 157 0.0 0.9 0.00 0.00 0.00 93 1008.9
20260508004959 75 301 0.0 0.0 0.00 0.00 0.00 93 1009.0
20260508004454 75 19 0.9 0.9 0.00 0.00 0.00 92 1009.3
20260508003952 75 301 0.9 0.9 0.00 0.00 0.00 92 1008.9
20260508003448 75 342 0.0 0.9 0.00 0.00 0.00 93 1009.2
20260508002946 75 312 0.9 0.9 0.00 0.00 0.00 92 1009.2
20260508002442 75 291 1.7 1.7 0.00 0.00 0.00 92 1009.2
20260508001938 75 297 0.9 1.7 0.00 0.00 0.00 92 1009.2
20260508001434 75 350 1.7 2.6 0.00 0.00 0.00 92 1009.1
20260508000931 75 314 0.9 0.9 0.00 0.00 0.00 92 1009.3
20260508000427 75 338 1.7 1.7 0.00 0.00 0.00 92 1009.3
20260507235924 75 304 0.9 0.9 0.00 0.00 0.00 92 1009.2
20260507235421 75 328 0.9 0.9 0.00 0.00 0.00 92 1009.1
20260507234918 75 300 0.9 0.9 0.00 0.00 0.00 92 1009.2
20260507234415 75 325 1.7 1.7 0.00 0.00 0.00 91 1009.3
20260507233911 75 321 0.9 0.9 0.00 0.00 0.00 91 1009.2
20260507233408 75 306 0.9 0.9 0.00 0.00 0.00 91 1009.2
20260507232907 75 291 1.7 1.7 0.00 0.00 0.00 91 1009.3
20260507232403 75 302 0.9 0.9 0.00 0.00 0.00 91 1009.0
20260507231901 75 326 0.9 0.9 0.00 0.00 0.00 91 1009.1
20260507231357 75 304 0.0 0.0 0.00 0.00 0.00 91 1009.1
20260507230853 75 322 0.9 0.9 0.00 0.00 0.00 91 1008.9
20260507230351 75 280 0.0 0.0 0.00 0.00 0.00 92 1008.7
20260507225850 75 107 0.0 0.9 0.00 0.00 0.00 92 1008.8
20260507225347 75 178 0.0 0.0 0.00 0.00 0.00 92 1009.0
20260507224843 75 189 0.0 0.0 0.00 0.00 0.00 92 1008.9
20260507224340 75 162 0.0 0.0 0.00 0.00 0.00 93 1008.9
20260507223835 75 25 0.0 0.0 0.00 0.00 0.00 93 1008.9
20260507223332 75 348 0.0 0.0 0.00 0.00 0.00 93 1008.8
20260507222829 75 357 0.9 0.9 0.00 0.00 0.00 93 1009.0
20260507222325 75 357 0.0 0.9 0.00 0.00 0.00 93 1009.0
20260507221823 75 348 0.0 0.0 0.00 0.00 0.00 94 1009.0
20260507221319 75 49 0.0 0.9 0.00 0.00 0.00 94 1008.8
20260507220815 75 338 0.0 0.0 0.00 0.00 0.00 95 1008.8
20260507220314 74 322 0.0 0.9 0.00 0.00 0.00 95 1008.7
20260507215809 74 322 0.9 0.9 0.00 0.00 0.00 95 1008.5
20260507215307 74 318 0.0 0.0 0.00 0.00 0.00 95 1008.4
20260507214804 75 318 0.0 0.0 0.00 0.00 0.00 95 1008.5
20260507214301 75 317 0.0 0.0 0.00 0.00 0.00 95 1008.1
20260507213756 75 317 0.0 0.0 0.00 0.00 0.00 95 1008.3
20260507213253 75 317 0.0 0.0 0.00 0.00 0.00 95 1008.1
20260507212750 75 317 0.0 0.0 0.00 0.00 0.00 95 1007.9
20260507212246 75 317 0.0 0.0 0.00 0.00 0.00 94 1008.4
20260507211743 76 317 0.0 0.0 0.00 0.00 0.00 94 1008.2
20260507211239 76 317 0.0 0.0 0.00 0.00 0.00 93 1008.1
20260507210736 76 318 0.0 0.0 0.00 0.00 0.00 93 1007.9
20260507210233 77 318 0.0 0.0 0.00 0.00 0.00 92 1007.9
20260507205730 77 318 0.0 0.0 0.00 0.00 0.00 91 1007.7
20260507205227 78 318 0.0 0.0 0.00 0.00 0.00 89 1007.9
20260507204723 78 317 0.0 0.0 0.00 0.00 0.00 88 1007.7
20260507204221 78 323 0.9 0.9 0.00 0.00 0.00 88 1007.7
20260507203718 78 296 0.0 0.9 0.00 0.00 0.00 88 1007.7
20260507203216 78 314 0.0 0.9 0.00 0.00 0.00 88 1007.3
20260507202711 79 307 0.9 0.9 0.00 0.00 0.00 87 1007.3
20260507202208 79 328 0.9 0.9 0.00 0.00 0.00 87 1007.2
20260507201702 79 299 1.7 1.7 0.00 0.00 0.00 86 1007.0
20260507201200 79 304 0.9 0.9 0.00 0.00 0.00 86 1007.1
20260507200656 79 318 0.9 0.9 0.00 0.00 0.00 86 1007.0
20260507200152 80 288 0.0 0.0 0.00 0.00 0.00 85 1007.1
20260507195649 80 298 1.7 1.7 0.00 0.00 0.00 85 1007.3
20260507195146 80 332 0.9 0.9 0.00 0.00 0.00 84 1007.3
20260507194643 80 307 0.9 0.9 0.00 0.00 0.00 83 1007.1
20260507194138 80 307 0.9 0.9 0.00 0.00 0.00 83 1007.1
20260507193635 80 280 0.9 0.9 0.00 0.00 0.00 83 1007.1
20260507193133 80 316 0.9 0.9 0.00 0.00 0.00 83 1007.1
20260507192628 81 321 0.9 1.7 0.00 0.00 0.00 82 1007.3
20260507192126 82 272 0.9 1.7 0.00 0.00 0.00 80 1007.0
20260507191621 82 5 0.0 0.0 0.00 0.00 0.00 80 1007.2
20260507191118 82 323 0.9 0.9 0.00 0.00 0.00 79 1007.3
20260507190615 82 325 0.9 0.9 0.00 0.00 0.00 79 1007.2
20260507190114 82 316 1.7 1.7 0.00 0.00 0.00 80 1007.2
20260507185612 83 268 0.9 0.9 0.00 0.00 0.00 78 1007.5
20260507185108 83 298 1.7 1.7 0.00 0.00 0.00 78 1007.5
20260507184607 83 315 0.9 0.9 0.00 0.00 0.00 76 1007.6
20260507184104 83 339 0.9 0.9 0.00 0.00 0.00 78 1007.5
20260507183600 84 322 0.9 0.9 0.00 0.00 0.00 76 1007.5
20260507183057 84 305 0.9 0.9 0.00 0.00 0.00 74 1007.2
20260507182553 85 325 0.9 0.9 0.00 0.00 0.00 74 1007.6
20260507182049 85 313 1.7 1.7 0.00 0.00 0.00 72 1007.3
20260507181547 85 319 1.7 1.7 0.00 0.00 0.00 72 1007.6
20260507181043 84 301 0.9 1.7 0.00 0.00 0.00 74 1007.7
20260507180539 84 316 1.7 1.7 0.00 0.00 0.00 74 1007.6
20260507180036 83 338 0.9 0.9 0.00 0.00 0.00 76 1007.7
20260507175532 84 315 1.7 2.6 0.00 0.00 0.00 74 1007.9
20260507175030 85 312 1.7 1.7 0.00 0.00 0.00 73 1007.9
20260507174527 85 358 0.9 1.7 0.00 0.00 0.00 70 1007.8
20260507174025 85 127 0.0 0.9 0.00 0.00 0.00 71 1008.2
20260507173521 85 304 1.7 1.7 0.00 0.00 0.00 71 1008.1
20260507173019 84 319 1.7 2.6 0.00 0.00 0.00 73 1008.2
20260507172514 83 1 0.9 1.7 0.00 0.00 0.00 75 1008.4
20260507172011 84 314 1.7 1.7 0.00 0.00 0.00 73 1008.4
20260507171507 86 1 1.7 1.7 0.00 0.00 0.00 71 1008.5
20260507171005 86 334 0.9 1.7 0.00 0.00 0.00 69 1008.4
20260507170501 86 341 1.7 1.7 0.00 0.00 0.00 71 1008.6
20260507165957 85 305 1.7 1.7 0.00 0.00 0.00 71 1008.5
20260507165454 84 317 3.5 4.3 0.00 0.00 0.00 72 1008.4
20260507164949 85 289 0.9 1.7 0.00 0.00 0.00 70 1008.7
20260507164447 86 325 0.0 0.9 0.00 0.00 0.00 70 1008.9
20260507163943 85 325 1.7 1.7 0.00 0.00 0.00 69 1008.7
20260507163441 85 346 0.9 1.7 0.00 0.00 0.00 70 1009.0
20260507162938 85 337 0.9 1.7 0.00 0.00 0.00 70 1009.5
20260507162433 86 322 1.7 2.6 0.00 0.00 0.00 70 1009.5
20260507161931 84 331 1.7 2.6 0.00 0.00 0.00 73 1009.6
20260507161426 84 332 0.9 1.7 0.00 0.00 0.00 71 1009.9
20260507160924 84 11 1.7 1.7 0.00 0.00 0.00 73 1009.9
20260507160419 84 305 0.9 2.6 0.00 0.00 0.00 72 1010.2
20260507155915 84 322 1.7 1.7 0.00 0.00 0.00 72 1010.2
20260507155411 83 308 3.5 5.2 0.00 0.00 0.00 74 1010.3
20260507154909 83 337 0.0 0.9 0.00 0.00 0.00 74 1010.3
20260507154406 84 6 1.7 2.6 0.00 0.00 0.00 74 1010.7
20260507153903 84 57 1.7 1.7 0.00 0.00 0.00 72 1010.8
20260507153626 84 340 0.9 0.9 0.00 0.00 0.00 71 1011.1
20260507153359 84 340 0.9 0.9 0.00 0.00 0.00 71 1011.1
20260507153223 84 22 2.6 4.3 0.00 0.00 0.00 72 1010.9
20260507152855 84 22 2.6 4.3 0.00 0.00 0.00 72 1010.9
20260507152729 84 354 0.0 0.0 0.00 0.00 0.00 73 1011.2
20260507152352 85 325 1.7 1.7 0.00 0.00 0.00 72 1011.1
20260507151848 84 354 0.0 0.0 0.00 0.00 0.00 73 1011.2
20260507151344 83 281 0.9 0.9 0.00 0.00 0.00 72 1011.3
20260507150842 83 59 0.0 0.9 0.00 0.00 0.00 74 1011.7
20260507150338 83 97 0.9 0.9 0.00 0.00 0.00 73 1011.9
20260507145834 82 59 0.0 0.0 0.00 0.00 0.00 74 1011.9
20260507145331 84 303 2.6 4.3 0.00 0.00 0.00 72 1011.9
20260507144828 83 1 0.0 0.0 0.00 0.00 0.00 74 1012.1
20260507144239 82 354 0.0 0.0 0.00 0.00 0.00 74 1012.5
20260507143735 82 354 0.0 0.0 0.00 0.00 0.00 74 1012.5
20260507143232 82 354 0.0 0.0 0.00 0.00 0.00 74 1012.5
20260507142728 82 61 2.6 2.6 0.00 0.00 0.00 74 1012.7
20260507142225 81 231 1.7 2.6 0.00 0.00 0.00 75 1013.0
20260507141721 80 342 0.9 1.7 0.00 0.00 0.00 78 1013.2
20260507141219 80 21 0.9 0.9 0.00 0.00 0.00 78 1013.0
20260507140714 80 59 0.9 1.7 0.00 0.00 0.00 78 1013.2
20260507140212 80 312 0.9 0.9 0.00 0.00 0.00 78 1013.1
20260507135709 79 38 0.0 0.0 0.00 0.00 0.00 81 1013.3
20260507135206 78 26 0.9 0.9 0.00 0.00 0.00 82 1013.5
20260507134702 78 287 1.7 1.7 0.00 0.00 0.00 83 1013.4
20260507134159 78 350 0.9 1.7 0.00 0.00 0.00 83 1013.6
20260507133654 77 11 0.9 0.9 0.00 0.00 0.00 83 1013.8
20260507133152 77 351 0.9 0.9 0.00 0.00 0.00 83 1014.0
20260507132649 78 336 2.6 2.6 0.00 0.00 0.00 84 1013.9
20260507132145 77 109 0.9 0.9 0.00 0.00 0.00 84 1013.9
20260507131643 77 286 1.7 2.6 0.00 0.00 0.00 83 1014.1
20260507131140 77 310 0.9 1.7 0.00 0.00 0.00 84 1013.9
20260507130636 77 338 0.9 1.7 0.00 0.00 0.00 84 1013.9
20260507130134 77 65 0.0 0.9 0.00 0.00 0.00 83 1014.0
20260507125633 78 328 2.6 2.6 0.00 0.00 0.00 82 1013.9
20260507125130 78 47 0.9 0.9 0.00 0.00 0.00 82 1014.1
20260507124626 78 297 0.9 0.9 0.00 0.00 0.00 81 1014.4
20260507124124 78 18 0.9 1.7 0.00 0.00 0.00 83 1014.5
20260507123622 79 18 0.9 1.7 0.00 0.00 0.00 82 1014.2
20260507123119 78 14 0.9 0.9 0.00 0.00 0.00 83 1014.2
20260507122614 78 75 0.9 0.9 0.00 0.00 0.00 84 1014.1
20260507122110 78 47 0.9 0.9 0.00 0.00 0.00 84 1014.3
20260507121606 77 13 1.7 1.7 0.00 0.00 0.00 87 1014.3
20260507121102 76 44 0.0 0.9 0.00 0.00 0.00 88 1014.4
20260507120558 75 33 0.9 1.7 0.00 0.00 0.00 90 1014.3
20260507120055 75 294 1.7 2.6 0.00 0.00 0.00 90 1014.3
20260507115551 75 180 0.0 0.0 0.00 0.00 0.00 90 1014.5
20260507115047 75 338 0.9 0.9 0.00 0.00 0.00 90 1014.6
20260507114543 75 337 0.9 0.9 0.00 0.00 0.00 91 1014.3
20260507114041 75 34 0.9 1.7 0.00 0.00 0.00 92 1014.2
20260507113537 74 312 0.9 0.9 0.00 0.00 0.00 92 1014.7
20260507113035 75 15 0.9 0.9 0.00 0.00 0.00 91 1014.6
20260507112532 74 343 0.0 0.0 0.00 0.00 0.00 93 1014.6
20260507112029 74 355 0.9 0.9 0.00 0.00 0.00 93 1014.6
20260507111526 74 323 1.7 1.7 0.00 0.00 0.00 93 1014.3
20260507111023 74 78 0.9 0.9 0.00 0.00 0.00 94 1014.5
20260507110519 74 310 0.9 1.7 0.00 0.00 0.00 94 1014.4
20260507110016 73 336 0.0 0.9 0.00 0.00 0.00 96 1014.2
20260507105513 73 308 0.9 1.7 0.00 0.00 0.00 97 1014.3
20260507105009 73 18 0.0 0.0 0.00 0.00 0.00 98 1014.7
20260507104507 72 314 0.9 0.9 0.00 0.00 0.00 99 1014.2
20260507104003 72 84 0.0 0.0 0.00 0.00 0.00 99 1014.4
20260507103459 72 307 0.0 0.0 0.00 0.00 0.00 99 1014.3
20260507102955 72 313 0.0 0.9 0.00 0.00 0.00 99 1014.4
20260507102452 72 328 0.0 0.9 0.00 0.00 0.00 99 1014.4
20260507101948 72 284 0.9 0.9 0.00 0.00 0.00 99 1014.4
20260507101443 72 305 0.0 0.0 0.00 0.00 0.00 99 1014.4
20260507100940 72 322 0.0 0.0 0.00 0.00 0.00 99 1014.4
20260507100438 72 317 0.0 0.0 0.00 0.00 0.00 99 1014.2
20260507095936 72 336 0.0 0.0 0.00 0.00 0.00 99 1014.4
20260507095433 72 336 0.0 0.0 0.00 0.00 0.00 99 1014.1
20260507094930 72 336 0.0 0.0 0.00 0.00 0.00 99 1014.1
20260507094426 72 333 0.0 0.0 0.00 0.00 0.00 99 1014.0
20260507093923 72 333 0.0 0.0 0.00 0.00 0.00 99 1013.9
20260507093421 72 333 0.0 0.0 0.00 0.00 0.00 99 1014.1
20260507092919 72 332 0.0 0.0 0.00 0.00 0.00 99 1014.1
20260507092415 72 332 0.0 0.0 0.00 0.00 0.00 99 1014.0
20260507091912 72 332 0.0 0.0 0.00 0.00 0.00 99 1014.0
20260507091408 72 332 0.0 0.0 0.00 0.00 0.00 99 1014.1
20260507090904 72 333 0.0 0.0 0.00 0.00 0.00 99 1013.9
20260507090400 72 333 0.0 0.0 0.00 0.00 0.00 99 1014.3
20260507085857 72 332 0.0 0.0 0.00 0.00 0.00 99 1014.2
20260507085354 72 332 0.0 0.0 0.00 0.00 0.00 99 1014.1
20260507084852 72 333 0.0 0.0 0.00 0.00 0.00 99 1013.9
20260507084348 72 332 0.0 0.0 0.00 0.00 0.00 99 1013.9
20260507083845 72 333 0.0 0.0 0.00 0.00 0.00 99 1014.1
20260507083342 72 333 0.0 0.0 0.00 0.00 0.00 99 1014.0
20260507082838 72 333 0.0 0.0 0.00 0.00 0.00 99 1013.8
20260507082333 72 333 0.0 0.0 0.00 0.00 0.00 99 1014.0
20260507081831 72 333 0.0 0.0 0.00 0.00 0.00 99 1013.9
20260507081327 72 333 0.0 0.0 0.00 0.00 0.00 99 1013.7
20260507080824 72 333 0.0 0.0 0.00 0.00 0.00 99 1013.9
20260507080320 72 317 0.0 0.0 0.00 0.00 0.00 99 1013.9
20260507075815 72 316 0.0 0.0 0.00 0.00 0.00 99 1014.0
20260507075312 72 316 0.0 0.0 0.00 0.00 0.00 99 1014.2
20260507074808 72 316 0.0 0.0 0.00 0.00 0.00 99 1014.0
20260507074306 72 317 0.0 0.0 0.00 0.00 0.00 99 1014.0
20260507073803 73 316 0.0 0.0 0.00 0.00 0.00 99 1014.4
20260507073300 73 316 0.0 0.0 0.00 0.00 0.00 99 1014.3
20260507072757 73 324 0.0 0.0 0.00 0.00 0.00 99 1014.2
20260507072254 73 6 0.0 0.0 0.00 0.00 0.00 99 1014.3
20260507071752 73 6 0.0 0.0 0.00 0.00 0.00 99 1014.0
20260507071248 73 2 0.0 0.0 0.00 0.00 0.00 99 1014.0
20260507070745 73 6 0.0 0.0 0.00 0.00 0.00 99 1014.2
20260507070242 73 306 0.0 0.0 0.00 0.00 0.00 99 1014.0
20260507065738 73 301 0.9 0.9 0.00 0.00 0.00 99 1014.2
20260507065235 73 305 0.0 0.9 0.00 0.00 0.00 99 1014.3
20260507064733 73 320 0.0 0.0 0.00 0.00 0.00 99 1014.3
20260507064232 73 337 0.0 0.0 0.00 0.00 0.00 99 1014.3
20260507063728 73 333 0.0 0.0 0.00 0.00 0.00 99 1014.5
20260507063225 73 304 0.9 0.9 0.00 0.00 0.00 99 1014.4
20260507062722 73 4 0.0 0.0 0.00 0.00 0.00 99 1014.6
20260507062220 73 348 0.0 0.0 0.00 0.00 0.00 99 1014.6
20260507061717 73 336 0.0 0.9 0.00 0.00 0.00 99 1014.6
20260507061215 73 338 0.0 0.9 0.00 0.00 0.00 99 1014.5
20260507060713 73 321 0.0 0.0 0.00 0.00 0.00 98 1014.7
20260507060209 73 272 0.0 0.0 0.00 0.00 0.00 98 1014.6
20260507055705 73 303 0.0 0.9 0.00 0.00 0.00 98 1014.8
20260507055201 73 68 0.0 0.0 0.00 0.00 0.00 98 1015.0
20260507054657 73 120 0.0 0.0 0.00 0.00 0.00 98 1015.0
20260507054154 73 350 0.0 0.0 0.00 0.00 0.00 98 1015.1
20260507053652 73 15 0.0 0.9 0.00 0.00 0.00 98 1015.1
20260507053150 73 295 0.0 0.9 0.00 0.00 0.00 98 1015.2
20260507052648 73 312 0.9 0.9 0.00 0.00 0.00 98 1015.4
20260507052144 73 39 0.9 0.9 0.00 0.00 0.00 98 1015.2
20260507051642 73 307 0.0 0.0 0.00 0.00 0.00 98 1015.2
20260507051138 73 70 0.9 0.9 0.00 0.00 0.00 97 1015.4
20260507050635 73 46 0.9 0.9 0.00 0.00 0.00 97 1015.3
20260507050132 74 337 0.9 0.9 0.00 0.00 0.00 98 1015.6
20260507045629 74 130 0.0 0.0 0.00 0.00 0.00 98 1015.7
20260507045125 74 339 0.0 0.0 0.00 0.00 0.00 98 1015.9
20260507044622 74 305 0.9 0.9 0.00 0.00 0.00 98 1016.0
20260507044119 74 16 0.0 0.9 0.00 0.00 0.00 98 1016.0
20260507043615 74 17 0.0 0.0 0.00 0.00 0.00 98 1015.9
20260507043112 74 336 0.0 0.0 0.00 0.00 0.00 98 1016.2
20260507042608 74 20 0.0 0.0 0.00 0.00 0.00 98 1016.1
20260507042104 74 130 0.0 0.0 0.00 0.00 0.00 98 1016.2
20260507041601 74 185 0.0 0.0 0.00 0.00 0.00 98 1016.0
20260507041058 74 188 0.0 0.0 0.00 0.00 0.00 98 1016.2
20260507040554 74 89 0.0 0.9 0.00 0.00 0.00 98 1016.1
20260507040051 74 161 0.9 0.9 0.00 0.00 0.00 98 1016.1
20260507035547 74 172 0.0 0.9 0.00 0.00 0.00 98 1016.2
20260507035043 74 200 0.0 0.0 0.00 0.00 0.00 97 1016.1